Location: Vesunti
(61.5000°N, 22.8333°E)
Time: 19:41:50
(UTC+00:00)

Cosmos 1174 - Pass Details

Date: 17 February 2020
Orbit: 374 x 1145 km, 66.1° (Epoch: 07 April)

Event Time Altitude Azimuth Distance (km) Brightness Sun altitude
Exits shadow 04:01:49 27° 320° (NW) 774 4.3 -15.6°
Maximum altitude 04:02:43 33° 358° (N) 663 4.2 -15.5°
Drops below altitude 10° 04:05:36 10° 66° (ENE) 1,446 7.1 -15.1°
Sets 04:07:51 0° 76° (ENE) 2,367 8.8 -14.8°
